Time,TemperatureF,DewpointF,PressureIn,WindDirection,WindDirectionDegrees,WindSpeedMPH,WindSpeedGustMPH,Humidity,HourlyPrecipIn,Conditions,Clouds,dailyrainin,SolarRadiationWatts/m^2,SoftwareType,DateUTC
2013-03-24 00:00:00,75.2,71.7,29.90,SSE,157,0.0,0.0,89,0.00,,CLR,0.00,0.00,VWS V14.01,2013-03-24 04:00:00,
2013-03-24 00:05:00,75.2,72.1,29.91,SSE,157,0.0,0.0,90,0.00,,CLR,0.00,0.00,VWS V14.01,2013-03-24 04:05:00,
2013-03-24 00:10:00,75.2,72.1,29.91,SSE,157,0.0,0.0,90,0.00,,CLR,0.00,0.00,VWS V14.01,2013-03-24 04:10:00,
2013-03-24 00:15:00,75.2,72.1,29.91,SSE,157,1.0,1.0,90,0.00,,CLR,0.00,0.00,VWS V14.01,2013-03-24 04:15:00,
2013-03-24 00:20:00,75.3,72.2,29.90,SSE,157,0.0,0.0,90,0.00,,CLR,0.00,0.00,VWS V14.01,2013-03-24 04:20:00,
2013-03-24 00:25:00,75.4,72.3,29.91,SSE,157,1.0,1.0,90,0.00,,CLR,0.00,0.00,VWS V14.01,2013-03-24 04:25:00,
2013-03-24 00:30:00,75.5,72.4,29.90,SSE,157,2.0,2.0,90,0.00,,CLR,0.00,0.00,VWS V14.01,2013-03-24 04:30:00,
2013-03-24 00:35:00,75.5,72.4,29.91,SSE,157,0.0,3.0,90,0.00,,SCT043,0.00,0.00,VWS V14.01,2013-03-24 04:35:00,
2013-03-24 00:40:00,75.6,72.5,29.90,SSE,157,0.0,1.0,90,0.00,,SCT043,0.00,0.00,VWS V14.01,2013-03-24 04:40:00,
2013-03-24 00:45:00,75.7,72.6,29.90,SSE,157,1.0,1.0,90,0.00,,SCT043,0.00,0.00,VWS V14.01,2013-03-24 04:45:00,
2013-03-24 00:50:00,75.7,72.6,29.91,SE,142,3.0,4.0,90,0.00,,SCT043,0.00,0.00,VWS V14.01,2013-03-24 04:50:00,
2013-03-24 00:55:00,75.8,72.7,29.91,SSE,153,2.0,3.0,90,0.00,,SCT043,0.00,0.00,VWS V14.01,2013-03-24 04:55:00,
2013-03-24 01:00:00,75.8,72.7,29.90,SSE,164,2.0,3.0,90,0.00,,SCT043,0.00,0.00,VWS V14.01,2013-03-24 05:00:00,
2013-03-24 01:05:00,75.9,72.8,29.90,South,173,1.0,3.0,90,0.00,,SCT043,0.00,0.00,VWS V14.01,2013-03-24 05:05:00,
2013-03-24 01:10:00,75.9,72.8,29.90,SSE,156,3.0,4.0,90,0.00,,SCT043,0.00,0.00,VWS V14.01,2013-03-24 05:10:00,
2013-03-24 01:15:00,75.9,73.1,29.90,SSE,155,1.0,3.0,91,0.00,,SCT043,0.00,0.00,VWS V14.01,2013-03-24 05:15:00,
2013-03-24 01:20:00,75.8,73.0,29.90,South,169,2.0,4.0,91,0.00,,SCT043,0.00,0.00,VWS V14.01,2013-03-24 05:20:00,
2013-03-24 01:25:00,75.8,73.0,29.90,SSE,165,4.0,4.0,91,0.00,,SCT043,0.00,0.00,VWS V14.01,2013-03-24 05:25:00,
2013-03-24 01:30:00,75.8,73.0,29.90,SSE,167,1.0,2.0,91,0.00,,SCT043,0.00,0.00,VWS V14.01,2013-03-24 05:30:00,
2013-03-24 01:35:00,75.8,73.0,29.89,SSE,157,2.0,3.0,91,0.00,,SCT043,0.00,0.00,VWS V14.01,2013-03-24 05:35:00,
2013-03-24 01:40:00,75.7,72.9,29.89,SSE,150,1.0,3.0,91,0.00,,OVC047,0.00,0.00,VWS V14.01,2013-03-24 05:40:00,
2013-03-24 01:45:00,75.6,72.8,29.89,SSE,161,2.0,3.0,91,0.00,,OVC047,0.00,0.00,VWS V14.01,2013-03-24 05:45:00,
2013-03-24 01:50:00,75.6,73.1,29.89,SSE,152,2.0,4.0,92,0.00,,OVC047,0.00,0.00,VWS V14.01,2013-03-24 05:50:00,
2013-03-24 01:55:00,75.5,73.0,29.88,SSE,157,1.0,3.0,92,0.00,,OVC047,0.00,0.00,VWS V14.01,2013-03-24 05:55:00,
2013-03-24 02:00:00,75.5,73.0,29.88,SSE,157,2.0,3.0,92,0.00,,OVC047,0.00,0.00,VWS V14.01,2013-03-24 06:00:00,
2013-03-24 02:05:00,75.4,72.9,29.88,SSE,157,0.0,1.0,92,0.00,,OVC047,0.00,0.00,VWS V14.01,2013-03-24 06:05:00,
2013-03-24 02:10:00,75.4,72.9,29.88,SSE,160,1.0,3.0,92,0.00,,OVC047,0.00,0.00,VWS V14.01,2013-03-24 06:10:00,
2013-03-24 02:15:00,75.3,72.8,29.88,SSE,158,1.0,2.0,92,0.00,,OVC047,0.00,0.00,VWS V14.01,2013-03-24 06:15:00,
2013-03-24 02:20:00,75.3,73.1,29.88,SSE,159,1.0,5.0,93,0.00,,OVC047,0.00,0.00,VWS V14.01,2013-03-24 06:20:00,
2013-03-24 02:25:00,75.3,73.1,29.88,SSE,161,3.0,4.0,93,0.00,,OVC047,0.00,0.00,VWS V14.01,2013-03-24 06:25:00,
2013-03-24 02:30:00,75.3,73.1,29.87,SSE,163,1.0,3.0,93,0.00,,OVC047,0.00,0.00,VWS V14.01,2013-03-24 06:30:00,
2013-03-24 02:35:00,75.3,73.1,29.87,SSE,151,1.0,3.0,93,0.00,,OVC047,0.00,0.00,VWS V14.01,2013-03-24 06:35:00,
2013-03-24 02:40:00,75.3,73.1,29.87,SSE,158,5.0,6.0,93,0.00,,BKN047,0.00,0.00,VWS V14.01,2013-03-24 06:40:00,
2013-03-24 02:45:00,75.2,73.0,29.86,SSE,155,2.0,4.0,93,0.00,,BKN047,0.00,0.00,VWS V14.01,2013-03-24 06:45:00,
2013-03-24 02:50:00,75.2,73.0,29.86,SSE,165,1.0,2.0,93,0.00,,BKN047,0.00,0.00,VWS V14.01,2013-03-24 06:50:00,
2013-03-24 02:55:00,75.1,72.9,29.86,SSW,192,1.0,3.0,93,0.00,,BKN047,0.00,0.00,VWS V14.01,2013-03-24 06:55:00,
2013-03-24 03:00:00,75.1,73.3,29.85,SSE,163,2.0,4.0,94,0.00,,BKN047,0.00,0.00,VWS V14.01,2013-03-24 07:00:00,
2013-03-24 03:05:00,75.0,73.2,29.85,SSE,165,1.0,3.0,94,0.00,,BKN047,0.00,0.00,VWS V14.01,2013-03-24 07:05:00,
2013-03-24 03:10:00,74.9,73.1,29.85,SSE,167,1.0,3.0,94,0.00,,BKN047,0.00,0.00,VWS V14.01,2013-03-24 07:10:00,
2013-03-24 03:15:00,74.8,72.6,29.85,SSE,159,2.0,4.0,93,0.00,,BKN047,0.00,0.00,VWS V14.01,2013-03-24 07:15:00,
2013-03-24 03:20:00,74.8,73.0,29.85,SSE,159,2.0,3.0,94,0.00,,BKN047,0.00,0.00,VWS V14.01,2013-03-24 07:20:00,
2013-03-24 03:25:00,74.8,73.0,29.85,SSE,159,2.0,2.0,94,0.00,,BKN047,0.00,0.00,VWS V14.01,2013-03-24 07:25:00,
2013-03-24 03:30:00,74.7,72.9,29.85,SSE,153,1.0,3.0,94,0.00,,BKN047,0.00,0.00,VWS V14.01,2013-03-24 07:30:00,
2013-03-24 03:35:00,74.7,72.9,29.85,SSE,165,1.0,3.0,94,0.00,,BKN047,0.00,0.00,VWS V14.01,2013-03-24 07:35:00,
2013-03-24 03:40:00,74.7,72.9,29.84,SSE,167,1.0,2.0,94,0.00,,SCT009,0.00,0.00,VWS V14.01,2013-03-24 07:40:00,
2013-03-24 03:45:00,74.6,72.8,29.84,South,169,4.0,4.0,94,0.00,,SCT009,0.00,0.00,VWS V14.01,2013-03-24 07:45:00,
2013-03-24 03:50:00,74.7,72.9,29.84,South,171,2.0,4.0,94,0.00,,BKN047,0.00,0.00,VWS V14.01,2013-03-24 07:50:00,
2013-03-24 03:55:00,74.7,72.9,29.84,SSE,163,3.0,4.0,94,0.00,,BKN047,0.00,0.00,VWS V14.01,2013-03-24 07:55:00,
2013-03-24 04:00:00,74.7,72.9,29.84,South,173,2.0,2.0,94,0.00,,SCT009,0.00,0.00,VWS V14.01,2013-03-24 08:00:00,
2013-03-24 04:05:00,74.7,73.2,29.84,SSE,149,2.0,3.0,95,0.00,,SCT009,0.00,0.00,VWS V14.01,2013-03-24 08:05:00,
2013-03-24 04:10:00,74.8,73.3,29.84,SSE,167,2.0,2.0,95,0.00,,SCT009,0.00,0.00,VWS V14.01,2013-03-24 08:10:00,
2013-03-24 04:15:00,74.6,72.8,29.84,SSW,201,2.0,4.0,94,0.00,,SCT009,0.00,0.00,VWS V14.01,2013-03-24 08:15:00,
2013-03-24 04:20:00,74.6,73.1,29.84,SSW,206,1.0,5.0,95,0.00,,SCT009,0.00,0.00,VWS V14.01,2013-03-24 08:20:00,
2013-03-24 04:25:00,74.6,73.1,29.84,SSW,203,4.0,4.0,95,0.00,,SCT009,0.00,0.00,VWS V14.01,2013-03-24 08:25:00,
2013-03-24 04:30:00,74.6,73.1,29.84,SSW,205,2.0,3.0,95,0.00,,SCT009,0.00,0.00,VWS V14.01,2013-03-24 08:30:00,
2013-03-24 04:35:00,74.5,73.0,29.84,SSW,200,1.0,2.0,95,0.00,,SCT009,0.00,0.00,VWS V14.01,2013-03-24 08:35:00,
2013-03-24 04:40:00,74.5,73.0,29.84,South,169,1.0,3.0,95,0.00,,BKN008,0.00,0.00,VWS V14.01,2013-03-24 08:40:00,
2013-03-24 04:45:00,74.5,73.0,29.83,SSW,198,2.0,4.0,95,0.00,,BKN008,0.00,0.00,VWS V14.01,2013-03-24 08:45:00,
2013-03-24 04:50:00,74.5,73.0,29.83,SSW,200,2.0,2.0,95,0.00,,BKN008,0.00,0.00,VWS V14.01,2013-03-24 08:50:00,
2013-03-24 04:55:00,74.5,73.0,29.83,SSW,211,5.0,5.0,95,0.00,,BKN008,0.00,0.00,VWS V14.01,2013-03-24 08:55:00,
2013-03-24 05:00:00,74.5,73.0,29.83,South,173,2.0,6.0,95,0.00,,SCT008,0.00,0.00,VWS V14.01,2013-03-24 09:00:00,
2013-03-24 05:05:00,74.5,73.0,29.83,SSW,197,3.0,7.0,95,0.00,,SCT008,0.00,0.00,VWS V14.01,2013-03-24 09:05:00,
2013-03-24 05:10:00,74.5,73.0,29.83,SSW,203,2.0,6.0,95,0.00,,SCT008,0.00,0.00,VWS V14.01,2013-03-24 09:10:00,
2013-03-24 05:15:00,74.5,73.0,29.83,SSE,167,5.0,7.0,95,0.00,,SCT008,0.00,0.00,VWS V14.01,2013-03-24 09:15:00,
2013-03-24 05:20:00,74.6,73.1,29.83,SSW,207,4.0,7.0,95,0.00,,SCT008,0.00,0.00,VWS V14.01,2013-03-24 09:20:00,
2013-03-24 05:25:00,74.6,73.1,29.83,SSW,204,2.0,5.0,95,0.00,,SCT008,0.00,0.00,VWS V14.01,2013-03-24 09:25:00,
2013-03-24 05:30:00,74.6,73.1,29.83,South,176,2.0,7.0,95,0.00,,SCT008,0.00,0.00,VWS V14.01,2013-03-24 09:30:00,
2013-03-24 05:35:00,74.5,73.0,29.83,SSW,200,4.0,7.0,95,0.00,,SCT008,0.00,0.00,VWS V14.01,2013-03-24 09:35:00,
2013-03-24 05:40:00,74.6,73.1,29.83,SSW,193,2.0,4.0,95,0.00,,SCT008,0.00,0.00,VWS V14.01,2013-03-24 09:40:00,
2013-03-24 05:45:00,74.6,73.1,29.83,SSW,194,5.0,5.0,95,0.00,,SCT008,0.00,0.00,VWS V14.01,2013-03-24 09:45:00,
2013-03-24 05:50:00,74.6,73.1,29.83,SSE,159,4.0,8.0,95,0.00,,FEW008,0.00,0.00,VWS V14.01,2013-03-24 09:50:00,
2013-03-24 05:55:00,74.6,73.1,29.83,SSW,203,4.0,7.0,95,0.00,,FEW008,0.00,0.00,VWS V14.01,2013-03-24 09:55:00,
2013-03-24 06:00:00,74.6,73.1,29.83,SSE,165,4.0,5.0,95,0.00,,FEW008,0.00,0.00,VWS V14.01,2013-03-24 10:00:00,
2013-03-24 06:05:00,74.6,73.1,29.83,SW,214,5.0,6.0,95,0.00,,FEW008,0.00,0.00,VWS V14.01,2013-03-24 10:05:00,
2013-03-24 06:10:00,74.6,73.1,29.83,SSW,208,2.0,7.0,95,0.00,,FEW008,0.00,0.00,VWS V14.01,2013-03-24 10:10:00,
2013-03-24 06:15:00,74.6,73.1,29.82,SW,225,6.0,8.0,95,0.00,,FEW008,0.00,0.00,VWS V14.01,2013-03-24 10:15:00,
2013-03-24 06:20:00,74.6,73.1,29.82,SW,226,2.0,7.0,95,0.00,,FEW008,0.00,0.00,VWS V14.01,2013-03-24 10:20:00,
2013-03-24 06:25:00,74.6,73.1,29.82,SSW,213,5.0,12.0,95,0.00,,FEW008,0.00,0.00,VWS V14.01,2013-03-24 10:25:00,
2013-03-24 06:30:00,74.6,73.1,29.82,SW,236,4.0,9.0,95,0.00,,FEW008,0.00,0.00,VWS V14.01,2013-03-24 10:30:00,
2013-03-24 06:35:00,74.6,73.1,29.82,SSW,194,6.0,7.0,95,0.00,,FEW008,0.00,0.00,VWS V14.01,2013-03-24 10:35:00,
2013-03-24 06:40:00,74.6,73.1,29.82,SW,233,3.0,8.0,95,0.00,,CLR,0.00,0.00,VWS V14.01,2013-03-24 10:40:00,
2013-03-24 06:45:00,74.7,73.2,29.82,SSW,202,2.0,7.0,95,0.00,,CLR,0.00,0.00,VWS V14.01,2013-03-24 10:45:00,
2013-03-24 06:50:00,74.6,73.1,29.82,South,180,10.0,10.0,95,0.00,,CLR,0.00,0.00,VWS V14.01,2013-03-24 10:50:00,
2013-03-24 06:55:00,74.7,73.2,29.82,SW,218,8.0,8.0,95,0.00,,CLR,0.00,0.00,VWS V14.01,2013-03-24 10:55:00,
2013-03-24 07:00:00,74.7,73.2,29.83,SSW,208,3.0,5.0,95,0.00,,CLR,0.00,0.00,VWS V14.01,2013-03-24 11:00:00,
2013-03-24 07:05:00,74.7,73.2,29.82,SW,235,4.0,6.0,95,0.00,,CLR,0.00,0.00,VWS V14.01,2013-03-24 11:05:00,
2013-03-24 07:10:00,74.7,73.2,29.82,South,171,6.0,9.0,95,0.00,,CLR,0.00,0.00,VWS V14.01,2013-03-24 11:10:00,
2013-03-24 07:15:00,74.7,73.2,29.82,SSW,200,4.0,6.0,95,0.00,,CLR,0.00,0.00,VWS V14.01,2013-03-24 11:15:00,
2013-03-24 07:20:00,74.6,72.8,29.82,SW,215,6.0,11.0,94,0.00,,CLR,0.00,0.00,VWS V14.01,2013-03-24 11:20:00,
2013-03-24 07:25:00,74.6,72.8,29.82,SSE,167,11.0,11.0,94,0.00,,CLR,0.00,5.00,VWS V14.01,2013-03-24 11:25:00,
2013-03-24 07:30:00,74.6,72.8,29.81,SSE,164,4.0,10.0,94,0.00,,CLR,0.00,11.00,VWS V14.01,2013-03-24 11:30:00,
2013-03-24 07:35:00,74.6,72.8,29.81,SW,222,10.0,12.0,94,0.00,,CLR,0.00,14.00,VWS V14.01,2013-03-24 11:35:00,
2013-03-24 07:40:00,74.5,72.7,29.81,WSW,237,9.0,10.0,94,0.00,,CLR,0.00,19.00,VWS V14.01,2013-03-24 11:40:00,
2013-03-24 07:45:00,74.5,72.7,29.81,SSW,206,4.0,11.0,94,0.00,,CLR,0.00,23.00,VWS V14.01,2013-03-24 11:45:00,
2013-03-24 07:50:00,74.6,72.8,29.82,SW,225,5.0,11.0,94,0.00,,CLR,0.00,26.00,VWS V14.01,2013-03-24 11:50:00,
2013-03-24 07:55:00,74.7,72.6,29.81,SSW,213,6.0,6.0,93,0.00,,CLR,0.00,32.00,VWS V14.01,2013-03-24 11:55:00,
2013-03-24 08:00:00,74.8,72.6,29.81,South,176,7.0,10.0,93,0.00,,CLR,0.00,35.00,VWS V14.01,2013-03-24 12:00:00,
2013-03-24 08:05:00,75.0,72.8,29.82,SSW,209,6.0,12.0,93,0.00,,CLR,0.00,39.00,VWS V14.01,2013-03-24 12:05:00,
2013-03-24 08:10:00,75.1,72.6,29.81,SW,236,7.0,13.0,92,0.00,,CLR,0.00,46.00,VWS V14.01,2013-03-24 12:10:00,
2013-03-24 08:15:00,75.3,72.8,29.81,SW,236,6.0,13.0,92,0.00,,CLR,0.00,49.00,VWS V14.01,2013-03-24 12:15:00,
2013-03-24 08:20:00,75.5,73.0,29.81,SSW,204,6.0,12.0,92,0.00,,CLR,0.00,54.00,VWS V14.01,2013-03-24 12:20:00,
2013-03-24 08:25:00,75.8,73.0,29.81,SSW,197,8.0,17.0,91,0.00,,CLR,0.00,63.00,VWS V14.01,2013-03-24 12:25:00,
2013-03-24 08:30:00,76.0,73.2,29.81,SSW,204,11.0,14.0,91,0.00,,CLR,0.00,77.00,VWS V14.01,2013-03-24 12:30:00,
2013-03-24 08:35:00,76.2,73.1,29.81,SSE,168,8.0,14.0,90,0.00,,CLR,0.00,102.00,VWS V14.01,2013-03-24 12:35:00,
2013-03-24 08:40:00,76.5,73.3,29.80,SW,221,13.0,13.0,90,0.00,,CLR,0.00,158.00,VWS V14.01,2013-03-24 12:40:00,
2013-03-24 08:45:00,76.8,73.7,29.80,SSW,209,14.0,14.0,90,0.00,,CLR,0.00,116.00,VWS V14.01,2013-03-24 12:45:00,
2013-03-24 08:50:00,76.9,73.4,29.80,SSW,212,11.0,21.0,89,0.00,,CLR,0.00,121.00,VWS V14.01,2013-03-24 12:50:00,
2013-03-24 08:55:00,77.0,73.5,29.80,SSW,203,13.0,16.0,89,0.00,,CLR,0.00,132.00,VWS V14.01,2013-03-24 12:55:00,
2013-03-24 09:00:00,77.2,73.7,29.80,South,177,11.0,13.0,89,0.00,,CLR,0.00,239.00,VWS V14.01,2013-03-24 13:00:00,
2013-03-24 09:05:00,77.5,73.7,29.80,SSW,213,2.0,13.0,88,0.00,,CLR,0.00,146.00,VWS V14.01,2013-03-24 13:05:00,
2013-03-24 09:10:00,77.7,73.5,29.80,SSW,213,10.0,17.0,87,0.00,,CLR,0.00,141.00,VWS V14.01,2013-03-24 13:10:00,
2013-03-24 09:15:00,77.9,73.4,29.80,South,173,16.0,19.0,86,0.00,,CLR,0.00,156.00,VWS V14.01,2013-03-24 13:15:00,
2013-03-24 09:20:00,78.1,73.6,29.80,WSW,241,7.0,17.0,86,0.00,,CLR,0.00,142.00,VWS V14.01,2013-03-24 13:20:00,
2013-03-24 09:25:00,78.5,74.0,29.79,South,173,14.0,22.0,86,0.00,,CLR,0.00,383.00,VWS V14.01,2013-03-24 13:25:00,
2013-03-24 09:30:00,78.9,73.7,29.79,SSE,162,10.0,17.0,84,0.00,,CLR,0.00,471.00,VWS V14.01,2013-03-24 13:30:00,
2013-03-24 09:35:00,79.3,73.7,29.80,WSW,244,9.0,17.0,83,0.00,,CLR,0.00,359.00,VWS V14.01,2013-03-24 13:35:00,
2013-03-24 09:40:00,79.9,73.6,29.80,SW,224,10.0,17.0,81,0.00,,BKN015,0.00,181.00,VWS V14.01,2013-03-24 13:40:00,
2013-03-24 09:45:00,80.4,73.7,29.79,South,180,13.0,24.0,80,0.00,,BKN015,0.00,276.00,VWS V14.01,2013-03-24 13:45:00,
2013-03-24 09:50:00,80.6,73.5,29.80,WSW,240,8.0,14.0,79,0.00,,BKN015,0.00,250.00,VWS V14.01,2013-03-24 13:50:00,
2013-03-24 09:55:00,80.6,73.5,29.80,SW,228,10.0,16.0,79,0.00,,BKN015,0.00,171.00,VWS V14.01,2013-03-24 13:55:00,
2013-03-24 10:00:00,80.7,73.2,29.80,SW,219,12.0,15.0,78,0.00,,BKN015,0.00,232.00,VWS V14.01,2013-03-24 14:00:00,
2013-03-24 10:05:00,80.9,73.4,29.80,SW,231,11.0,19.0,78,0.00,,BKN015,0.00,257.00,VWS V14.01,2013-03-24 14:05:00,
2013-03-24 10:10:00,81.2,73.3,29.80,SW,221,9.0,18.0,77,0.00,,BKN015,0.00,693.00,VWS V14.01,2013-03-24 14:10:00,
2013-03-24 10:15:00,81.5,73.2,29.80,SE,146,18.0,18.0,76,0.00,,BKN015,0.00,258.00,VWS V14.01,2013-03-24 14:15:00,
2013-03-24 10:20:00,81.6,72.9,29.80,SW,219,11.0,21.0,75,0.00,,BKN015,0.00,239.00,VWS V14.01,2013-03-24 14:20:00,
2013-03-24 10:25:00,81.6,73.3,29.80,SSW,198,7.0,24.0,76,0.00,,BKN015,0.00,251.00,VWS V14.01,2013-03-24 14:25:00,
2013-03-24 10:30:00,81.7,73.0,29.79,South,174,7.0,13.0,75,0.00,,BKN015,0.00,176.00,VWS V14.01,2013-03-24 14:30:00,
2013-03-24 10:35:00,81.7,72.6,29.80,WSW,245,11.0,21.0,74,0.00,,BKN015,0.00,243.00,VWS V14.01,2013-03-24 14:35:00,
2013-03-24 10:40:00,82.0,72.9,29.80,WSW,247,11.0,23.0,74,0.00,,BKN026,0.00,246.00,VWS V14.01,2013-03-24 14:40:00,
2013-03-24 10:45:00,82.5,73.4,29.80,WSW,240,10.0,13.0,74,0.00,,BKN026,0.00,213.00,VWS V14.01,2013-03-24 14:45:00,
2013-03-24 10:50:00,82.7,73.2,29.80,SSW,209,7.0,14.0,73,0.00,,BKN026,0.00,350.00,VWS V14.01,2013-03-24 14:50:00,
2013-03-24 10:55:00,83.3,72.9,29.80,SW,227,9.0,21.0,71,0.00,,BKN026,0.00,587.00,VWS V14.01,2013-03-24 14:55:00,
2013-03-24 11:00:00,84.5,73.7,29.79,SSW,194,8.0,17.0,70,0.00,,BKN036,0.00,874.00,VWS V14.01,2013-03-24 15:00:00,
2013-03-24 11:05:00,85.0,73.3,29.79,SW,236,12.0,25.0,68,0.00,,BKN036,0.00,874.00,VWS V14.01,2013-03-24 15:05:00,
2013-03-24 11:10:00,85.2,73.0,29.79,WSW,247,13.0,18.0,67,0.00,,BKN036,0.00,214.00,VWS V14.01,2013-03-24 15:10:00,
2013-03-24 11:15:00,84.9,72.3,29.79,SW,228,10.0,29.0,66,0.00,,BKN036,0.00,232.00,VWS V14.01,2013-03-24 15:15:00,
2013-03-24 11:20:00,85.1,72.5,29.79,SSE,167,9.0,19.0,66,0.00,,BKN036,0.00,867.00,VWS V14.01,2013-03-24 15:20:00,
2013-03-24 11:25:00,85.8,72.7,29.79,SSE,159,15.0,20.0,65,0.00,,BKN036,0.00,930.00,VWS V14.01,2013-03-24 15:25:00,
2013-03-24 11:30:00,86.1,72.5,29.79,SSE,158,17.0,24.0,64,0.00,,BKN036,0.00,515.00,VWS V14.01,2013-03-24 15:30:00,
2013-03-24 11:35:00,85.8,71.8,29.80,WSW,244,13.0,32.0,63,0.00,,BKN036,0.00,322.00,VWS V14.01,2013-03-24 15:35:00,
2013-03-24 11:40:00,85.7,72.1,29.80,WSW,247,9.0,15.0,64,0.00,,BKN034,0.00,244.00,VWS V14.01,2013-03-24 15:40:00,
2013-03-24 11:45:00,85.4,71.8,29.80,SSW,211,7.0,20.0,64,0.00,,BKN034,0.00,408.00,VWS V14.01,2013-03-24 15:45:00,
2013-03-24 11:50:00,86.2,72.6,29.80,SSW,204,19.0,25.0,64,0.00,,BKN034,0.00,972.00,VWS V14.01,2013-03-24 15:50:00,
2013-03-24 11:55:00,87.5,72.9,29.79,WSW,245,10.0,16.0,62,0.00,,BKN034,0.00,965.00,VWS V14.01,2013-03-24 15:55:00,
2013-03-24 12:00:00,88.3,72.7,29.80,WSW,242,14.0,19.0,60,0.00,,BKN034,0.00,325.00,VWS V14.01,2013-03-24 16:00:00,
2013-03-24 12:05:00,87.4,71.3,29.80,SW,227,11.0,23.0,59,0.00,,BKN034,0.00,248.00,VWS V14.01,2013-03-24 16:05:00,
2013-03-24 12:10:00,87.0,71.9,29.80,SSE,157,15.0,21.0,61,0.00,,BKN034,0.00,986.00,VWS V14.01,2013-03-24 16:10:00,
2013-03-24 12:15:00,87.4,71.8,29.79,WSW,252,19.0,24.0,60,0.00,,BKN034,0.00,1041.00,VWS V14.01,2013-03-24 16:15:00,
2013-03-24 12:20:00,87.6,71.5,29.80,WSW,244,13.0,21.0,59,0.00,,BKN034,0.00,308.00,VWS V14.01,2013-03-24 16:20:00,
2013-03-24 12:25:00,87.6,71.5,29.80,SSW,211,10.0,21.0,59,0.00,,BKN034,0.00,332.00,VWS V14.01,2013-03-24 16:25:00,
2013-03-24 12:30:00,87.8,72.2,29.80,WSW,243,13.0,22.0,60,0.00,,BKN034,0.00,420.00,VWS V14.01,2013-03-24 16:30:00,
2013-03-24 12:35:00,87.8,71.2,29.80,WSW,242,11.0,23.0,58,0.00,,BKN034,0.00,274.00,VWS V14.01,2013-03-24 16:35:00,
2013-03-24 12:40:00,87.6,71.5,29.80,WSW,250,13.0,17.0,59,0.00,,BKN043,0.00,320.00,VWS V14.01,2013-03-24 16:40:00,
2013-03-24 12:45:00,87.5,70.9,29.80,West,262,10.0,21.0,58,0.00,,BKN043,0.00,1088.00,VWS V14.01,2013-03-24 16:45:00,
2013-03-24 12:50:00,88.8,72.1,29.79,WSW,243,17.0,25.0,58,0.00,,BKN043,0.00,1042.00,VWS V14.01,2013-03-24 16:50:00,
2013-03-24 12:55:00,89.5,71.2,29.79,SW,229,11.0,24.0,55,0.00,,BKN043,0.00,243.00,VWS V14.01,2013-03-24 16:55:00,
2013-03-24 13:00:00,88.9,71.2,29.79,WSW,258,11.0,23.0,56,0.00,,BKN043,0.00,269.00,VWS V14.01,2013-03-24 17:00:00,
2013-03-24 13:05:00,87.8,71.2,29.79,SW,223,13.0,20.0,58,0.00,,BKN043,0.00,258.00,VWS V14.01,2013-03-24 17:05:00,
2013-03-24 13:10:00,87.6,71.5,29.78,West,275,15.0,19.0,59,0.00,,BKN043,0.00,1030.00,VWS V14.01,2013-03-24 17:10:00,
2013-03-24 13:15:00,88.6,71.9,29.78,SSW,207,10.0,18.0,58,0.00,,BKN043,0.00,1004.00,VWS V14.01,2013-03-24 17:15:00,
2013-03-24 13:20:00,89.7,71.9,29.78,WSW,250,13.0,22.0,56,0.00,,BKN043,0.00,1044.00,VWS V14.01,2013-03-24 17:20:00,
2013-03-24 13:25:00,89.7,71.9,29.78,WSW,248,13.0,22.0,56,0.00,,BKN043,0.00,951.00,VWS V14.01,2013-03-24 17:25:00,
2013-03-24 13:30:00,88.9,71.7,29.78,SSW,203,7.0,17.0,57,0.00,,BKN043,0.00,292.00,VWS V14.01,2013-03-24 17:30:00,
2013-03-24 13:35:00,89.4,71.7,29.78,SW,229,7.0,21.0,56,0.00,,BKN043,0.00,1083.00,VWS V14.01,2013-03-24 17:35:00,
2013-03-24 13:40:00,89.9,71.0,29.78,South,173,13.0,21.0,54,0.00,,BKN048,0.00,253.00,VWS V14.01,2013-03-24 17:40:00,
2013-03-24 13:45:00,89.7,71.9,29.78,WSW,242,16.0,17.0,56,0.00,,BKN048,0.00,253.00,VWS V14.01,2013-03-24 17:45:00,
2013-03-24 13:50:00,89.8,72.0,29.77,West,262,7.0,19.0,56,0.00,,BKN048,0.00,283.00,VWS V14.01,2013-03-24 17:50:00,
2013-03-24 13:55:00,89.4,71.7,29.78,SW,217,11.0,18.0,56,0.00,,BKN048,0.00,260.00,VWS V14.01,2013-03-24 17:55:00,
2013-03-24 14:00:00,90.1,71.8,29.77,WSW,246,12.0,23.0,55,0.00,,BKN048,0.00,1074.00,VWS V14.01,2013-03-24 18:00:00,
2013-03-24 14:05:00,90.4,72.1,29.78,WSW,244,15.0,26.0,55,0.00,,BKN048,0.00,991.00,VWS V14.01,2013-03-24 18:05:00,
2013-03-24 14:10:00,89.7,72.4,29.77,West,262,7.0,13.0,57,0.00,,BKN048,0.00,396.00,VWS V14.01,2013-03-24 18:10:00,
2013-03-24 14:15:00,90.1,72.3,29.77,WSW,254,16.0,21.0,56,0.00,,BKN048,0.00,1004.00,VWS V14.01,2013-03-24 18:15:00,
2013-03-24 14:20:00,90.3,71.9,29.77,SSW,198,11.0,23.0,55,0.00,,BKN048,0.00,1099.00,VWS V14.01,2013-03-24 18:20:00,
2013-03-24 14:25:00,89.8,71.5,29.77,West,264,9.0,17.0,55,0.00,,BKN048,0.00,322.00,VWS V14.01,2013-03-24 18:25:00,
2013-03-24 14:30:00,89.7,71.9,29.76,WSW,242,15.0,17.0,56,0.00,,BKN048,0.00,1053.00,VWS V14.01,2013-03-24 18:30:00,
2013-03-24 14:35:00,89.4,70.6,29.76,WSW,257,15.0,23.0,54,0.00,,BKN048,0.00,276.00,VWS V14.01,2013-03-24 18:35:00,
2013-03-24 14:40:00,89.2,71.5,29.76,WSW,257,15.0,17.0,56,0.00,,SCT050,0.00,353.00,VWS V14.01,2013-03-24 18:40:00,
2013-03-24 14:45:00,88.8,71.6,29.75,WSW,251,12.0,19.0,57,0.00,,SCT050,0.00,329.00,VWS V14.01,2013-03-24 18:45:00,
2013-03-24 14:50:00,89.0,71.8,29.75,WSW,257,11.0,19.0,57,0.00,,SCT050,0.00,329.00,VWS V14.01,2013-03-24 18:50:00,
2013-03-24 14:55:00,89.0,71.3,29.75,West,260,6.0,19.0,56,0.00,,SCT050,0.00,246.00,VWS V14.01,2013-03-24 18:55:00,
2013-03-24 15:00:00,89.0,71.3,29.75,West,264,16.0,18.0,56,0.00,,SCT050,0.00,940.00,VWS V14.01,2013-03-24 19:00:00,
2013-03-24 15:05:00,89.3,71.6,29.75,West,269,11.0,17.0,56,0.00,,SCT050,0.00,214.00,VWS V14.01,2013-03-24 19:05:00,
2013-03-24 15:10:00,89.8,71.5,29.75,WNW,296,17.0,28.0,55,0.00,,SCT050,0.00,893.00,VWS V14.01,2013-03-24 19:10:00,
2013-03-24 15:15:00,90.1,71.2,29.74,WSW,255,6.0,18.0,54,0.00,,SCT050,0.00,884.00,VWS V14.01,2013-03-24 19:15:00,
2013-03-24 15:20:00,90.6,70.6,29.74,SW,226,10.0,25.0,52,0.00,,SCT050,0.00,907.00,VWS V14.01,2013-03-24 19:20:00,
2013-03-24 15:25:00,90.8,70.2,29.74,WSW,249,25.0,25.0,51,0.00,,SCT050,0.00,865.00,VWS V14.01,2013-03-24 19:25:00,
2013-03-24 15:30:00,90.5,69.9,29.74,West,259,8.0,19.0,51,0.00,,SCT050,0.00,863.00,VWS V14.01,2013-03-24 19:30:00,
2013-03-24 15:35:00,90.0,70.0,29.74,SSW,211,7.0,18.0,52,0.00,,SCT050,0.00,192.00,VWS V14.01,2013-03-24 19:35:00,
2013-03-24 15:40:00,89.7,70.9,29.74,WSW,248,9.0,16.0,54,0.00,,SCT050,0.00,239.00,VWS V14.01,2013-03-24 19:40:00,
2013-03-24 15:45:00,89.5,70.7,29.74,WSW,248,12.0,24.0,54,0.00,,SCT050,0.00,239.00,VWS V14.01,2013-03-24 19:45:00,
2013-03-24 15:50:00,89.5,70.7,29.74,WSW,248,13.0,21.0,54,0.00,,SCT050,0.00,876.00,VWS V14.01,2013-03-24 19:50:00,
2013-03-24 15:55:00,89.7,70.9,29.74,West,270,12.0,20.0,54,0.00,,CLR,0.00,860.00,VWS V14.01,2013-03-24 19:55:00,
2013-03-24 16:03:00,89.7,70.9,29.74,West,270,12.0,20.0,54,0.00,,SCT050,0.00,860.00,VWS V14.01,2013-03-24 20:03:00,
2013-03-24 16:05:00,90.0,70.6,29.73,West,261,15.0,15.0,53,0.00,,CLR,0.00,777.00,VWS V14.01,2013-03-24 20:05:00,
2013-03-24 16:08:00,90.0,71.1,29.73,West,279,10.0,16.0,54,0.00,,BKN050,0.00,791.00,VWS V14.01,2013-03-24 20:08:00,
2013-03-24 16:10:00,90.1,70.7,29.73,West,275,9.0,21.0,53,0.00,,CLR,0.00,788.00,VWS V14.01,2013-03-24 20:10:00,
2013-03-24 16:13:00,90.0,71.1,29.73,WSW,248,21.0,23.0,54,0.00,,BKN050,0.00,735.00,VWS V14.01,2013-03-24 20:13:00,
2013-03-24 16:15:00,89.9,70.5,29.73,WSW,251,13.0,22.0,53,0.00,,CLR,0.00,744.00,VWS V14.01,2013-03-24 20:15:00,
2013-03-24 16:18:00,89.9,71.0,29.73,SW,230,12.0,18.0,54,0.00,,BKN050,0.00,708.00,VWS V14.01,2013-03-24 20:18:00,
2013-03-24 16:20:00,89.9,71.0,29.73,SW,216,7.0,18.0,54,0.00,,CLR,0.00,708.00,VWS V14.01,2013-03-24 20:20:00,
2013-03-24 16:23:00,89.7,70.3,29.73,West,266,16.0,17.0,53,0.00,,BKN050,0.00,715.00,VWS V14.01,2013-03-24 20:23:00,
2013-03-24 16:25:00,89.7,70.9,29.73,SW,218,10.0,17.0,54,0.00,,CLR,0.00,715.00,VWS V14.01,2013-03-24 20:25:00,
2013-03-24 16:28:00,89.6,71.3,29.73,WSW,254,9.0,13.0,55,0.00,,BKN050,0.00,700.00,VWS V14.01,2013-03-24 20:28:00,
2013-03-24 16:30:00,89.6,71.3,29.73,WSW,252,13.0,13.0,55,0.00,,CLR,0.00,700.00,VWS V14.01,2013-03-24 20:30:00,
2013-03-24 16:33:00,89.8,71.5,29.73,SW,225,8.0,21.0,55,0.00,,BKN050,0.00,740.00,VWS V14.01,2013-03-24 20:33:00,
2013-03-24 16:35:00,89.7,71.4,29.73,WSW,254,5.0,21.0,55,0.00,,CLR,0.00,197.00,VWS V14.01,2013-03-24 20:35:00,
2013-03-24 16:38:00,89.3,71.0,29.73,WSW,240,16.0,21.0,55,0.00,,SCT048,0.00,650.00,VWS V14.01,2013-03-24 20:38:00,
2013-03-24 16:40:00,89.3,71.0,29.73,WSW,242,20.0,21.0,55,0.00,,CLR,0.00,650.00,VWS V14.01,2013-03-24 20:40:00,
2013-03-24 16:43:00,88.4,71.2,29.72,WSW,246,11.0,16.0,57,0.00,,SCT048,0.00,265.00,VWS V14.01,2013-03-24 20:43:00,
2013-03-24 16:45:00,88.4,71.2,29.72,West,259,21.0,21.0,57,0.00,,CLR,0.00,265.00,VWS V14.01,2013-03-24 20:45:00,
2013-03-24 16:48:00,88.7,71.5,29.73,West,262,11.0,21.0,57,0.00,,SCT048,0.00,691.00,VWS V14.01,2013-03-24 20:48:00,
2013-03-24 16:50:00,88.8,71.6,29.73,West,259,12.0,21.0,57,0.00,,CLR,0.00,638.00,VWS V14.01,2013-03-24 20:50:00,
2013-03-24 16:53:00,89.0,71.8,29.72,SW,232,11.0,20.0,57,0.00,,SCT048,0.00,659.00,VWS V14.01,2013-03-24 20:53:00,
2013-03-24 16:55:00,89.0,71.8,29.72,NW,319,10.0,17.0,57,0.00,,CLR,0.00,659.00,VWS V14.01,2013-03-24 20:55:00,
2013-03-24 16:58:00,88.8,71.6,29.73,West,262,7.0,16.0,57,0.00,,SCT048,0.00,636.00,VWS V14.01,2013-03-24 20:58:00,
2013-03-24 17:00:00,88.8,71.6,29.73,West,263,8.0,19.0,57,0.00,,CLR,0.00,636.00,VWS V14.01,2013-03-24 21:00:00,
2013-03-24 17:03:00,89.0,71.3,29.73,WSW,254,6.0,16.0,56,0.00,,SCT048,0.00,608.00,VWS V14.01,2013-03-24 21:03:00,
2013-03-24 17:05:00,89.0,71.3,29.73,NW,305,11.0,16.0,56,0.00,,CLR,0.00,132.00,VWS V14.01,2013-03-24 21:05:00,
2013-03-24 17:08:00,88.3,71.2,29.73,WSW,250,7.0,19.0,57,0.00,,SCT048,0.00,186.00,VWS V14.01,2013-03-24 21:08:00,
2013-03-24 17:10:00,88.3,71.2,29.73,West,263,9.0,19.0,57,0.00,,CLR,0.00,186.00,VWS V14.01,2013-03-24 21:10:00,
2013-03-24 17:13:00,87.8,71.7,29.73,WSW,256,3.0,8.0,59,0.00,,SCT048,0.00,151.00,VWS V14.01,2013-03-24 21:13:00,
2013-03-24 17:15:00,87.8,71.7,29.73,West,271,11.0,13.0,59,0.00,,CLR,0.00,204.00,VWS V14.01,2013-03-24 21:15:00,
2013-03-24 17:18:00,87.9,72.3,29.73,WNW,287,22.0,22.0,60,0.00,,SCT048,0.00,204.00,VWS V14.01,2013-03-24 21:18:00,
2013-03-24 17:20:00,87.9,72.3,29.73,WSW,255,9.0,22.0,60,0.00,,CLR,0.00,573.00,VWS V14.01,2013-03-24 21:20:00,
2013-03-24 17:23:00,87.7,72.1,29.73,WSW,249,10.0,22.0,60,0.00,,SCT048,0.00,130.00,VWS V14.01,2013-03-24 21:23:00,
2013-03-24 17:25:00,87.6,72.0,29.73,West,259,10.0,19.0,60,0.00,,CLR,0.00,130.00,VWS V14.01,2013-03-24 21:25:00,
2013-03-24 17:28:00,87.4,72.3,29.73,West,262,11.0,15.0,61,0.00,,SCT048,0.00,436.00,VWS V14.01,2013-03-24 21:28:00,
2013-03-24 17:30:00,87.5,71.9,29.73,WSW,242,15.0,16.0,60,0.00,,CLR,0.00,436.00,VWS V14.01,2013-03-24 21:30:00,
2013-03-24 17:33:00,87.5,71.9,29.73,West,275,8.0,17.0,60,0.00,,SCT048,0.00,425.00,VWS V14.01,2013-03-24 21:33:00,
2013-03-24 17:35:00,87.5,71.9,29.73,West,271,8.0,17.0,60,0.00,,CLR,0.00,418.00,VWS V14.01,2013-03-24 21:35:00,
2013-03-24 17:38:00,87.3,71.2,29.72,West,262,13.0,18.0,59,0.00,,SCT050,0.00,399.00,VWS V14.01,2013-03-24 21:38:00,
2013-03-24 17:40:00,87.2,71.1,29.72,West,280,6.0,17.0,59,0.00,,CLR,0.00,397.00,VWS V14.01,2013-03-24 21:40:00,
2013-03-24 17:43:00,87.0,71.9,29.72,West,277,7.0,16.0,61,0.00,,SCT050,0.00,385.00,VWS V14.01,2013-03-24 21:43:00,
2013-03-24 17:45:00,86.9,71.8,29.72,West,259,8.0,17.0,61,0.00,,CLR,0.00,376.00,VWS V14.01,2013-03-24 21:45:00,
2013-03-24 17:48:00,86.7,71.7,29.73,West,272,11.0,18.0,61,0.00,,SCT050,0.00,360.00,VWS V14.01,2013-03-24 21:48:00,
2013-03-24 17:50:00,86.7,71.7,29.73,WSW,256,9.0,18.0,61,0.00,,CLR,0.00,355.00,VWS V14.01,2013-03-24 21:50:00,
2013-03-24 17:53:00,86.3,71.8,29.73,WNW,300,12.0,15.0,62,0.00,,SCT050,0.00,332.00,VWS V14.01,2013-03-24 21:53:00,
2013-03-24 17:55:00,86.2,71.7,29.73,WNW,296,9.0,20.0,62,0.00,,CLR,0.00,323.00,VWS V14.01,2013-03-24 21:55:00,
2013-03-24 17:58:00,86.2,71.7,29.73,WNW,284,7.0,19.0,62,0.00,,SCT050,0.00,309.00,VWS V14.01,2013-03-24 21:58:00,
2013-03-24 18:00:00,86.1,72.0,29.74,West,265,7.0,19.0,63,0.00,,CLR,0.00,309.00,VWS V14.01,2013-03-24 22:00:00,
2013-03-24 18:03:00,85.9,71.4,29.74,West,280,11.0,14.0,62,0.00,,SCT050,0.00,297.00,VWS V14.01,2013-03-24 22:03:00,
2013-03-24 18:05:00,85.8,71.8,29.74,West,266,13.0,16.0,63,0.00,,CLR,0.00,297.00,VWS V14.01,2013-03-24 22:05:00,
2013-03-24 18:08:00,85.7,71.2,29.74,NW,306,11.0,19.0,62,0.00,,SCT050,0.00,113.00,VWS V14.01,2013-03-24 22:08:00,
2013-03-24 18:10:00,85.6,71.1,29.74,West,265,17.0,19.0,62,0.00,,CLR,0.00,113.00,VWS V14.01,2013-03-24 22:10:00,
2013-03-24 18:13:00,85.4,71.4,29.74,WSW,248,17.0,17.0,63,0.00,,SCT050,0.00,262.00,VWS V14.01,2013-03-24 22:13:00,
2013-03-24 18:15:00,85.4,71.4,29.74,WSW,247,10.0,17.0,63,0.00,,CLR,0.00,260.00,VWS V14.01,2013-03-24 22:15:00,
2013-03-24 18:18:00,85.2,71.2,29.74,WSW,243,7.0,15.0,63,0.00,,SCT050,0.00,237.00,VWS V14.01,2013-03-24 22:18:00,
2013-03-24 18:20:00,85.2,71.7,29.74,WSW,240,4.0,15.0,64,0.00,,CLR,0.00,223.00,VWS V14.01,2013-03-24 22:20:00,
2013-03-24 18:23:00,85.1,71.6,29.74,West,272,8.0,14.0,64,0.00,,SCT050,0.00,211.00,VWS V14.01,2013-03-24 22:23:00,
2013-03-24 18:25:00,85.0,71.0,29.74,WSW,258,13.0,19.0,63,0.00,,CLR,0.00,220.00,VWS V14.01,2013-03-24 22:25:00,
2013-03-24 18:28:00,84.9,71.4,29.74,WNW,286,8.0,12.0,64,0.00,,SCT050,0.00,132.00,VWS V14.01,2013-03-24 22:28:00,
2013-03-24 18:30:00,84.9,71.4,29.74,West,276,13.0,14.0,64,0.00,,CLR,0.00,195.00,VWS V14.01,2013-03-24 22:30:00,
2013-03-24 18:33:00,84.6,71.1,29.74,WSW,242,10.0,17.0,64,0.00,,SCT050,0.00,178.00,VWS V14.01,2013-03-24 22:33:00,
2013-03-24 18:35:00,84.5,71.0,29.74,West,275,13.0,19.0,64,0.00,,CLR,0.00,171.00,VWS V14.01,2013-03-24 22:35:00,
2013-03-24 18:38:00,84.1,71.1,29.73,West,278,8.0,13.0,65,0.00,,CLR,0.00,151.00,VWS V14.01,2013-03-24 22:38:00,
2013-03-24 18:40:00,84.1,71.1,29.73,West,263,11.0,16.0,65,0.00,,CLR,0.00,149.00,VWS V14.01,2013-03-24 22:40:00,
2013-03-24 18:43:00,83.8,71.2,29.74,WSW,247,16.0,21.0,66,0.00,,CLR,0.00,141.00,VWS V14.01,2013-03-24 22:43:00,
2013-03-24 18:45:00,83.8,71.2,29.74,West,270,14.0,20.0,66,0.00,,CLR,0.00,139.00,VWS V14.01,2013-03-24 22:45:00,
2013-03-24 18:48:00,83.6,71.1,29.74,WSW,257,13.0,17.0,66,0.00,,CLR,0.00,111.00,VWS V14.01,2013-03-24 22:48:00,
2013-03-24 18:50:00,83.5,70.9,29.74,West,259,9.0,17.0,66,0.00,,CLR,0.00,69.00,VWS V14.01,2013-03-24 22:50:00,
2013-03-24 18:53:00,83.3,71.2,29.74,WNW,282,19.0,19.0,67,0.00,,CLR,0.00,95.00,VWS V14.01,2013-03-24 22:53:00,
2013-03-24 18:55:00,83.3,71.2,29.74,West,261,13.0,19.0,67,0.00,,CLR,0.00,97.00,VWS V14.01,2013-03-24 22:55:00,
2013-03-24 18:58:00,83.2,71.6,29.74,WNW,282,11.0,18.0,68,0.00,,CLR,0.00,54.00,VWS V14.01,2013-03-24 22:58:00,
2013-03-24 19:00:00,83.2,71.1,29.74,West,266,11.0,18.0,67,0.00,,CLR,0.00,40.00,VWS V14.01,2013-03-24 23:00:00,
2013-03-24 19:03:00,83.0,71.4,29.73,West,260,9.0,13.0,68,0.00,,CLR,0.00,35.00,VWS V14.01,2013-03-24 23:03:00,
2013-03-24 19:05:00,83.0,70.9,29.73,West,273,14.0,16.0,67,0.00,,CLR,0.00,35.00,VWS V14.01,2013-03-24 23:05:00,
2013-03-24 19:08:00,82.8,71.2,29.74,West,280,8.0,16.0,68,0.00,,CLR,0.00,30.00,VWS V14.01,2013-03-24 23:08:00,
2013-03-24 19:10:00,82.7,71.1,29.74,WSW,240,11.0,16.0,68,0.00,,CLR,0.00,30.00,VWS V14.01,2013-03-24 23:10:00,
2013-03-24 19:13:00,82.6,71.0,29.74,West,263,8.0,10.0,68,0.00,,CLR,0.00,25.00,VWS V14.01,2013-03-24 23:13:00,
2013-03-24 19:15:00,82.5,70.9,29.74,West,270,5.0,10.0,68,0.00,,CLR,0.00,23.00,VWS V14.01,2013-03-24 23:15:00,
2013-03-24 19:18:00,82.4,70.8,29.75,West,271,11.0,11.0,68,0.00,,CLR,0.00,19.00,VWS V14.01,2013-03-24 23:18:00,
2013-03-24 19:20:00,82.3,70.7,29.75,WSW,257,12.0,15.0,68,0.00,,CLR,0.00,18.00,VWS V14.01,2013-03-24 23:20:00,
2013-03-24 19:23:00,82.2,71.0,29.75,WSW,257,13.0,19.0,69,0.00,,CLR,0.00,12.00,VWS V14.01,2013-03-24 23:23:00,
2013-03-24 19:25:00,82.2,71.0,29.75,West,271,9.0,19.0,69,0.00,,CLR,0.00,11.00,VWS V14.01,2013-03-24 23:25:00,
2013-03-24 19:28:00,82.0,70.8,29.76,West,266,5.0,13.0,69,0.00,,CLR,0.00,7.00,VWS V14.01,2013-03-24 23:28:00,
2013-03-24 19:30:00,82.0,71.3,29.76,West,279,9.0,13.0,70,0.00,,CLR,0.00,7.00,VWS V14.01,2013-03-24 23:30:00,
2013-03-24 19:33:00,81.9,71.2,29.76,WNW,283,5.0,8.0,70,0.00,,CLR,0.00,0.00,VWS V14.01,2013-03-24 23:33:00,
2013-03-24 19:35:00,81.9,71.2,29.76,WNW,288,4.0,7.0,70,0.00,,CLR,0.00,0.00,VWS V14.01,2013-03-24 23:35:00,
2013-03-24 19:38:00,81.8,71.5,29.76,West,267,9.0,14.0,71,0.00,,CLR,0.00,0.00,VWS V14.01,2013-03-24 23:38:00,
2013-03-24 19:40:00,81.7,71.4,29.76,West,276,6.0,14.0,71,0.00,,CLR,0.00,0.00,VWS V14.01,2013-03-24 23:40:00,
2013-03-24 19:43:00,81.5,71.2,29.76,West,265,5.0,9.0,71,0.00,,CLR,0.00,0.00,VWS V14.01,2013-03-24 23:43:00,
2013-03-24 19:45:00,81.5,71.6,29.76,West,276,12.0,13.0,72,0.00,,CLR,0.00,0.00,VWS V14.01,2013-03-24 23:45:00,
2013-03-24 19:48:00,81.3,71.4,29.76,West,281,3.0,6.0,72,0.00,,CLR,0.00,0.00,VWS V14.01,2013-03-24 23:48:00,
2013-03-24 19:50:00,81.3,71.4,29.76,West,259,8.0,9.0,72,0.00,,CLR,0.00,0.00,VWS V14.01,2013-03-24 23:50:00,
2013-03-24 19:53:00,81.2,71.3,29.76,West,259,3.0,7.0,72,0.00,,CLR,0.00,0.00,VWS V14.01,2013-03-24 23:53:00,
2013-03-24 19:55:00,81.2,71.7,29.76,WSW,257,4.0,7.0,73,0.00,,CLR,0.00,0.00,VWS V14.01,2013-03-24 23:55:00,
2013-03-24 19:58:00,81.0,71.5,29.76,WSW,242,8.0,8.0,73,0.00,,CLR,0.00,0.00,VWS V14.01,2013-03-24 23:58:00,
2013-03-24 20:00:00,81.0,71.5,29.76,West,279,3.0,8.0,73,0.00,,CLR,0.00,0.00,VWS V14.01,2013-03-25 00:00:00,
2013-03-24 20:03:00,80.9,71.4,29.77,West,269,5.0,8.0,73,0.00,,CLR,0.00,0.00,VWS V14.01,2013-03-25 00:03:00,
2013-03-24 20:05:00,80.8,71.3,29.77,West,277,5.0,7.0,73,0.00,,CLR,0.00,0.00,VWS V14.01,2013-03-25 00:05:00,
2013-03-24 20:08:00,80.7,71.2,29.77,WNW,285,6.0,7.0,73,0.00,,CLR,0.00,0.00,VWS V14.01,2013-03-25 00:08:00,
2013-03-24 20:10:00,80.7,71.2,29.77,West,269,7.0,8.0,73,0.00,,CLR,0.00,0.00,VWS V14.01,2013-03-25 00:10:00,
2013-03-24 20:13:00,80.6,71.6,29.77,WSW,250,3.0,8.0,74,0.00,,CLR,0.00,0.00,VWS V14.01,2013-03-25 00:13:00,
2013-03-24 20:15:00,80.6,71.6,29.77,West,266,4.0,7.0,74,0.00,,CLR,0.00,0.00,VWS V14.01,2013-03-25 00:15:00,
2013-03-24 20:18:00,80.5,71.5,29.77,West,266,5.0,10.0,74,0.00,,CLR,0.00,0.00,VWS V14.01,2013-03-25 00:18:00,
2013-03-24 20:20:00,80.5,71.5,29.77,WNW,288,2.0,9.0,74,0.00,,CLR,0.00,0.00,VWS V14.01,2013-03-25 00:20:00,
2013-03-24 20:23:00,80.3,71.3,29.77,WNW,297,6.0,8.0,74,0.00,,CLR,0.00,0.00,VWS V14.01,2013-03-25 00:23:00,
2013-03-24 20:25:00,80.3,71.3,29.77,West,273,4.0,8.0,74,0.00,,CLR,0.00,0.00,VWS V14.01,2013-03-25 00:25:00,
2013-03-24 20:28:00,80.2,71.6,29.77,West,269,3.0,8.0,75,0.00,,CLR,0.00,0.00,VWS V14.01,2013-03-25 00:28:00,
2013-03-24 20:30:00,80.2,71.6,29.77,WSW,244,3.0,5.0,75,0.00,,CLR,0.00,0.00,VWS V14.01,2013-03-25 00:30:00,
2013-03-24 20:33:00,80.0,71.4,29.77,West,273,2.0,7.0,75,0.00,,CLR,0.00,0.00,VWS V14.01,2013-03-25 00:33:00,
2013-03-24 20:35:00,80.0,71.4,29.77,West,269,2.0,4.0,75,0.00,,CLR,0.00,0.00,VWS V14.01,2013-03-25 00:35:00,
2013-03-24 20:38:00,79.9,71.3,29.77,WSW,248,6.0,9.0,75,0.00,,CLR,0.00,0.00,VWS V14.01,2013-03-25 00:38:00,
2013-03-24 20:40:00,79.8,71.2,29.77,West,276,5.0,9.0,75,0.00,,CLR,0.00,0.00,VWS V14.01,2013-03-25 00:40:00,
2013-03-24 20:43:00,79.7,71.5,29.77,WSW,247,6.0,6.0,76,0.00,,CLR,0.00,0.00,VWS V14.01,2013-03-25 00:43:00,
2013-03-24 20:45:00,79.7,71.5,29.77,WNW,297,2.0,6.0,76,0.00,,CLR,0.00,0.00,VWS V14.01,2013-03-25 00:45:00,
2013-03-24 20:48:00,79.6,71.4,29.77,West,269,3.0,7.0,76,0.00,,CLR,0.00,0.00,VWS V14.01,2013-03-25 00:48:00,
2013-03-24 20:50:00,79.5,71.3,29.77,WSW,248,5.0,7.0,76,0.00,,CLR,0.00,0.00,VWS V14.01,2013-03-25 00:50:00,
2013-03-24 20:53:00,79.4,71.6,29.78,West,264,2.0,7.0,77,0.00,,CLR,0.00,0.00,VWS V14.01,2013-03-25 00:53:00,
2013-03-24 20:55:00,79.4,71.6,29.78,WNW,286,3.0,5.0,77,0.00,,CLR,0.00,0.00,VWS V14.01,2013-03-25 00:55:00,
2013-03-24 20:58:00,79.4,71.6,29.78,West,273,5.0,5.0,77,0.00,,CLR,0.00,0.00,VWS V14.01,2013-03-25 00:58:00,
2013-03-24 21:00:00,79.3,71.5,29.78,WNW,285,3.0,5.0,77,0.00,,CLR,0.00,0.00,VWS V14.01,2013-03-25 01:00:00,
2013-03-24 21:03:00,79.3,71.5,29.78,West,268,3.0,4.0,77,0.00,,CLR,0.00,0.00,VWS V14.01,2013-03-25 01:03:00,
2013-03-24 21:05:00,79.2,71.4,29.78,WSW,254,4.0,4.0,77,0.00,,CLR,0.00,0.00,VWS V14.01,2013-03-25 01:05:00,
2013-03-24 21:08:00,79.1,71.3,29.79,West,275,6.0,6.0,77,0.00,,CLR,0.00,0.00,VWS V14.01,2013-03-25 01:08:00,
2013-03-24 21:10:00,79.1,71.3,29.79,West,267,5.0,6.0,77,0.00,,CLR,0.00,0.00,VWS V14.01,2013-03-25 01:10:00,
2013-03-24 21:13:00,79.1,71.3,29.79,WNW,288,1.0,5.0,77,0.00,,CLR,0.00,0.00,VWS V14.01,2013-03-25 01:13:00,
2013-03-24 21:15:00,79.1,71.3,29.79,WNW,285,2.0,5.0,77,0.00,,CLR,0.00,0.00,VWS V14.01,2013-03-25 01:15:00,
2013-03-24 21:18:00,79.1,71.7,29.80,West,276,2.0,5.0,78,0.00,,CLR,0.00,0.00,VWS V14.01,2013-03-25 01:18:00,
2013-03-24 21:20:00,79.1,71.3,29.80,WNW,290,2.0,5.0,77,0.00,,CLR,0.00,0.00,VWS V14.01,2013-03-25 01:20:00,
2013-03-24 21:23:00,79.1,71.3,29.80,West,263,4.0,4.0,77,0.00,,CLR,0.00,0.00,VWS V14.01,2013-03-25 01:23:00,
2013-03-24 21:25:00,79.1,71.3,29.80,West,273,2.0,6.0,77,0.00,,CLR,0.00,0.00,VWS V14.01,2013-03-25 01:25:00,
2013-03-24 21:28:00,79.2,71.4,29.80,West,267,3.0,5.0,77,0.00,,CLR,0.00,0.00,VWS V14.01,2013-03-25 01:28:00,
2013-03-24 21:30:00,79.2,71.4,29.80,West,267,1.0,5.0,77,0.00,,CLR,0.00,0.00,VWS V14.01,2013-03-25 01:30:00,
2013-03-24 21:33:00,79.3,71.5,29.80,WSW,243,3.0,6.0,77,0.00,,CLR,0.00,0.00,VWS V14.01,2013-03-25 01:33:00,
2013-03-24 21:35:00,79.3,71.5,29.80,WNW,302,2.0,6.0,77,0.00,,CLR,0.00,0.00,VWS V14.01,2013-03-25 01:35:00,
2013-03-24 21:38:00,79.3,71.5,29.80,West,269,3.0,4.0,77,0.00,,CLR,0.00,0.00,VWS V14.01,2013-03-25 01:38:00,
2013-03-24 21:40:00,79.3,71.5,29.80,SW,229,4.0,4.0,77,0.00,,CLR,0.00,0.00,VWS V14.01,2013-03-25 01:40:00,
2013-03-24 21:43:00,79.2,71.0,29.80,WSW,258,3.0,8.0,76,0.00,,FEW100,0.00,0.00,VWS V14.01,2013-03-25 01:43:00,
2013-03-24 21:45:00,79.2,71.0,29.80,West,277,8.0,8.0,76,0.00,,CLR,0.00,0.00,VWS V14.01,2013-03-25 01:45:00,
2013-03-24 21:48:00,79.2,71.0,29.80,WSW,246,8.0,10.0,76,0.00,,FEW100,0.00,0.00,VWS V14.01,2013-03-25 01:48:00,
2013-03-24 21:50:00,79.2,71.0,29.80,WSW,252,4.0,10.0,76,0.00,,CLR,0.00,0.00,VWS V14.01,2013-03-25 01:50:00,
2013-03-24 21:53:00,79.2,71.0,29.80,West,273,4.0,7.0,76,0.00,,FEW100,0.00,0.00,VWS V14.01,2013-03-25 01:53:00,
2013-03-24 21:55:00,79.2,71.0,29.80,West,259,2.0,7.0,76,0.00,,CLR,0.00,0.00,VWS V14.01,2013-03-25 01:55:00,
2013-03-24 21:58:00,79.2,71.0,29.80,SSW,211,4.0,5.0,76,0.00,,FEW100,0.00,0.00,VWS V14.01,2013-03-25 01:58:00,
2013-03-24 22:00:00,79.2,71.0,29.80,WSW,244,3.0,5.0,76,0.00,,CLR,0.00,0.00,VWS V14.01,2013-03-25 02:00:00,
2013-03-24 22:03:00,79.2,71.0,29.80,West,260,3.0,5.0,76,0.00,,FEW100,0.00,0.00,VWS V14.01,2013-03-25 02:03:00,
2013-03-24 22:05:00,79.2,71.0,29.80,WSW,246,5.0,5.0,76,0.00,,CLR,0.00,0.00,VWS V14.01,2013-03-25 02:05:00,
2013-03-24 22:08:00,79.2,71.0,29.80,West,261,4.0,4.0,76,0.00,,FEW100,0.00,0.00,VWS V14.01,2013-03-25 02:08:00,
2013-03-24 22:10:00,79.2,71.0,29.80,West,271,2.0,4.0,76,0.00,,CLR,0.00,0.00,VWS V14.01,2013-03-25 02:10:00,
2013-03-24 22:13:00,79.2,71.4,29.80,West,259,2.0,4.0,77,0.00,,FEW100,0.00,0.00,VWS V14.01,2013-03-25 02:13:00,
2013-03-24 22:15:00,79.1,71.3,29.80,West,261,1.0,3.0,77,0.00,,CLR,0.00,0.00,VWS V14.01,2013-03-25 02:15:00,
2013-03-24 22:18:00,79.1,71.3,29.80,WSW,249,4.0,6.0,77,0.00,,FEW100,0.00,0.00,VWS V14.01,2013-03-25 02:18:00,
2013-03-24 22:20:00,79.1,71.3,29.80,WSW,251,4.0,6.0,77,0.00,,CLR,0.00,0.00,VWS V14.01,2013-03-25 02:20:00,
2013-03-24 22:23:00,79.1,71.3,29.80,WNW,285,3.0,7.0,77,0.00,,FEW100,0.00,0.00,VWS V14.01,2013-03-25 02:23:00,
2013-03-24 22:25:00,79.1,71.3,29.80,West,265,2.0,6.0,77,0.00,,CLR,0.00,0.00,VWS V14.01,2013-03-25 02:25:00,
2013-03-24 22:28:00,79.0,71.2,29.80,WSW,254,1.0,4.0,77,0.00,,FEW100,0.00,0.00,VWS V14.01,2013-03-25 02:28:00,
2013-03-24 22:30:00,79.1,71.7,29.80,West,273,4.0,4.0,78,0.00,,CLR,0.00,0.00,VWS V14.01,2013-03-25 02:30:00,
2013-03-24 22:33:00,79.0,71.6,29.80,WSW,241,4.0,5.0,78,0.00,,FEW100,0.00,0.00,VWS V14.01,2013-03-25 02:33:00,
2013-03-24 22:35:00,79.0,71.6,29.80,West,261,4.0,5.0,78,0.00,,CLR,0.00,0.00,VWS V14.01,2013-03-25 02:35:00,
2013-03-24 22:38:00,79.0,71.6,29.80,West,272,3.0,3.0,78,0.00,,FEW100,0.00,0.00,VWS V14.01,2013-03-25 02:38:00,
2013-03-24 22:40:00,79.0,71.6,29.80,West,263,4.0,7.0,78,0.00,,CLR,0.00,0.00,VWS V14.01,2013-03-25 02:40:00,
2013-03-24 22:43:00,79.0,71.6,29.80,West,265,4.0,9.0,78,0.00,,OVC050,0.00,0.00,VWS V14.01,2013-03-25 02:43:00,
2013-03-24 22:45:00,79.0,71.6,29.80,WSW,250,3.0,8.0,78,0.00,,CLR,0.00,0.00,VWS V14.01,2013-03-25 02:45:00,
2013-03-24 22:48:00,79.0,71.6,29.81,West,275,4.0,7.0,78,0.00,,OVC050,0.00,0.00,VWS V14.01,2013-03-25 02:48:00,
2013-03-24 22:50:00,79.0,71.6,29.81,WSW,246,5.0,7.0,78,0.00,,CLR,0.00,0.00,VWS V14.01,2013-03-25 02:50:00,
2013-03-24 22:53:00,79.0,71.6,29.81,WNW,292,4.0,7.0,78,0.00,,OVC050,0.00,0.00,VWS V14.01,2013-03-25 02:53:00,
2013-03-24 22:55:00,79.0,71.6,29.81,West,275,2.0,7.0,78,0.00,,CLR,0.00,0.00,VWS V14.01,2013-03-25 02:55:00,
2013-03-24 22:58:00,78.8,71.7,29.81,WNW,287,1.0,7.0,79,0.00,,OVC050,0.00,0.00,VWS V14.01,2013-03-25 02:58:00,
2013-03-24 23:00:00,78.8,71.7,29.81,WNW,284,4.0,6.0,79,0.00,,CLR,0.00,0.00,VWS V14.01,2013-03-25 03:00:00,
2013-03-24 23:03:00,78.7,71.6,29.80,West,268,4.0,7.0,79,0.00,,OVC050,0.00,0.00,VWS V14.01,2013-03-25 03:03:00,
2013-03-24 23:05:00,78.7,71.6,29.80,West,269,3.0,7.0,79,0.00,,CLR,0.00,0.00,VWS V14.01,2013-03-25 03:05:00,
2013-03-24 23:08:00,78.6,71.6,29.80,WSW,250,5.0,6.0,79,0.00,,OVC050,0.00,0.00,VWS V14.01,2013-03-25 03:08:00,
2013-03-24 23:10:00,78.6,71.6,29.80,West,272,4.0,6.0,79,0.00,,CLR,0.00,0.00,VWS V14.01,2013-03-25 03:10:00,
2013-03-24 23:13:00,78.6,71.9,29.81,WSW,255,5.0,7.0,80,0.00,,OVC050,0.00,0.00,VWS V14.01,2013-03-25 03:13:00,
2013-03-24 23:15:00,78.6,71.9,29.81,West,262,3.0,7.0,80,0.00,,CLR,0.00,0.00,VWS V14.01,2013-03-25 03:15:00,
2013-03-24 23:18:00,78.6,71.9,29.81,WSW,238,6.0,6.0,80,0.00,,OVC050,0.00,0.00,VWS V14.01,2013-03-25 03:18:00,
2013-03-24 23:20:00,78.6,71.9,29.81,West,270,3.0,7.0,80,0.00,,CLR,0.00,0.00,VWS V14.01,2013-03-25 03:20:00,
2013-03-24 23:23:00,78.5,72.2,29.80,West,274,8.0,8.0,81,0.00,,OVC050,0.00,0.00,VWS V14.01,2013-03-25 03:23:00,
2013-03-24 23:25:00,78.5,72.2,29.80,WSW,254,3.0,8.0,81,0.00,,CLR,0.00,0.00,VWS V14.01,2013-03-25 03:25:00,
2013-03-24 23:28:00,78.2,72.3,29.80,West,261,5.0,5.0,82,0.01,,OVC050,0.01,0.00,VWS V14.01,2013-03-25 03:28:00,
2013-03-24 23:30:00,78.2,72.6,29.80,WSW,238,5.0,7.0,83,0.01,,CLR,0.01,0.00,VWS V14.01,2013-03-25 03:30:00,
2013-03-24 23:33:00,77.8,72.2,29.80,WSW,254,1.0,5.0,83,0.01,,OVC050,0.01,0.00,VWS V14.01,2013-03-25 03:33:00,
2013-03-24 23:35:00,77.8,72.6,29.80,WSW,246,3.0,4.0,84,0.01,,CLR,0.01,0.00,VWS V14.01,2013-03-25 03:35:00,
2013-03-24 23:38:00,77.5,72.6,29.80,WSW,246,2.0,4.0,85,0.01,,OVC050,0.01,0.00,VWS V14.01,2013-03-25 03:38:00,
2013-03-24 23:40:00,77.5,72.6,29.80,West,269,3.0,4.0,85,0.01,,CLR,0.01,0.00,VWS V14.01,2013-03-25 03:40:00,
2013-03-24 23:43:00,77.3,72.4,29.80,WSW,245,3.0,4.0,85,0.01,,OVC055,0.01,0.00,VWS V14.01,2013-03-25 03:43:00,
2013-03-24 23:45:00,77.2,72.7,29.80,WSW,247,4.0,6.0,86,0.01,,CLR,0.01,0.00,VWS V14.01,2013-03-25 03:45:00,
2013-03-24 23:48:00,77.0,72.5,29.80,WSW,251,4.0,6.0,86,0.01,,OVC055,0.01,0.00,VWS V14.01,2013-03-25 03:48:00,
2013-03-24 23:50:00,77.0,72.5,29.80,WSW,239,3.0,5.0,86,0.01,,CLR,0.01,0.00,VWS V14.01,2013-03-25 03:50:00,
2013-03-24 23:53:00,76.9,72.4,29.79,WSW,250,4.0,9.0,86,0.01,,OVC055,0.01,0.00,VWS V14.01,2013-03-25 03:53:00,
2013-03-24 23:55:00,76.9,72.4,29.79,WSW,253,4.0,5.0,86,0.01,,CLR,0.01,0.00,VWS V14.01,2013-03-25 03:55:00,
2013-03-24 23:58:00,76.8,72.6,29.79,WSW,238,3.0,7.0,87,0.01,,OVC055,0.01,0.00,VWS V14.01,2013-03-25 03:58:00,